Punta Gorda, FL

10:05 PM EST on November 22, 2019 (GMT -0500)
Charlotte County

Weather History for KPGD - October, 2019

Change the Weather History Date:

Monday, October 21, 2019

  Actual Average Record
Temperature  
Mean Temperature 82 °F -  
Max Temperature 90 °F 83 °F 91 °F (2006)
Min Temperature 75 °F 62 °F 54 °F (1996)
Cooling Degree Days 18    
Growing Degree Days 32 (Base 50)    
Moisture  
Dew Point 76 °F    
Average Humidity 88    
Maximum Humidity 100    
Minimum Humidity 57    
Precipitation  
Precipitation 0.00 in - - ()
Sea Level Pressure  
Sea Level Pressure 29.98 in    
Wind  
Wind Speed 5 mph (South)    
Max Wind Speed 15 mph    
Max Gust Speed -    
Visibility 10 miles    
Events      
Averages and records for this station are not official NWS values.
T = Trace of Precipitation, MM = Missing Value Source: NWS Daily Summary

Daily Weather History Graph

Daily Weather History Graph

Search for Another Location

Airport or City:

Astronomy

Oct. 21, 2019 Rise Set
Actual Time 7:30 AM EDT 6:54 PM EDT
Civil Twilight 7:07 AM EDT 7:17 PM EDT
Nautical Twilight 6:40 AM EDT 7:44 PM EDT
Astronomical Twilight 6:13 AM EDT 8:11 PM EDT
Moon 12:23 AM EDT (10/21) 2:29 PM EDT (10/21)
Length of Visible Light 12h 10m
Length of Day
11h 23m
Waning Gibbous, 48% of the Moon is Illuminated
Oct 21
Waning Gibbous
Oct 27
New
Nov 4
First Quarter
Nov 12
Full
Nov 19
Last Quarter

Hourly Weather History & Observations

Time (EDT) Temp. Heat Index Dew Point Humidity Pressure Visibility Wind Dir Wind Speed Gust Speed Precip Events Conditions
12:53 AM 79.0 °F - 78.1 °F 97% 29.97 in 10.0 mi ESE 3.5 mph - N/A   Overcast
1:53 AM 79.0 °F - 78.1 °F 97% 29.96 in 10.0 mi SSE 3.5 mph - N/A   Overcast
2:53 AM 79.0 °F - 79.0 °F 100% 29.96 in 10.0 mi SSE 5.8 mph - N/A   Overcast
3:53 AM 78.1 °F - 78.1 °F 100% 29.95 in 10.0 mi SE 3.5 mph - N/A   Mostly Cloudy
4:53 AM 77.0 °F - 75.9 °F 96% 29.95 in 10.0 mi Calm Calm - N/A   Clear
5:53 AM 75.9 °F - 75.9 °F 100% 29.96 in 10.0 mi SSE 4.6 mph - N/A   Clear
6:53 AM 75.0 °F - 75.0 °F 100% 29.97 in 10.0 mi SSE 3.5 mph - N/A   Clear
7:31 AM 75.9 °F - 75.9 °F 100% 29.97 in 9.0 mi SSE 4.6 mph - N/A   Scattered Clouds
7:35 AM 75.9 °F - 75.9 °F 100% 29.97 in 9.0 mi SE 4.6 mph - N/A   Mostly Cloudy
7:49 AM 75.2 °F - 75.2 °F 100% 29.97 in 8.0 mi SE 3.5 mph - N/A   Scattered Clouds
7:53 AM 75.9 °F - 75.9 °F 100% 29.97 in 5.0 mi Calm Calm - N/A   Haze
8:53 AM 78.1 °F - 78.1 °F 100% 29.98 in 10.0 mi SSE 6.9 mph - N/A   Partly Cloudy
9:53 AM 82.9 °F 93.8 °F 79.0 °F 88% 30.00 in 10.0 mi South 9.2 mph - N/A   Scattered Clouds
10:53 AM 86.0 °F 96.0 °F 75.9 °F 72% 30.00 in 10.0 mi South 10.4 mph - N/A   Partly Cloudy
11:53 AM 89.1 °F 98.0 °F 73.9 °F 61% 30.02 in 10.0 mi SSW 11.5 mph - N/A   Scattered Clouds
12:53 PM 88.0 °F 96.5 °F 73.9 °F 63% 30.01 in 10.0 mi SSW 8.1 mph - N/A   Scattered Clouds
1:53 PM 90.0 °F 97.9 °F 73.0 °F 57% 29.99 in 10.0 mi WSW 13.8 mph - N/A   Scattered Clouds
2:53 PM 90.0 °F 99.0 °F 73.9 °F 59% 29.99 in 10.0 mi WSW 15.0 mph - N/A   Clear
3:53 PM 86.0 °F 95.1 °F 75.0 °F 70% 29.99 in 10.0 mi WSW 15.0 mph - N/A   Clear
4:53 PM 86.0 °F 95.1 °F 75.0 °F 70% 29.99 in 10.0 mi West 8.1 mph - N/A   Clear
5:53 PM 84.9 °F 94.1 °F 75.9 °F 74% 29.97 in 10.0 mi SSW 10.4 mph - N/A   Clear
6:53 PM 82.9 °F 92.8 °F 78.1 °F 85% 29.97 in 10.0 mi SW 5.8 mph - N/A   Clear
7:53 PM 82.0 °F 91.0 °F 78.1 °F 88% 29.99 in 10.0 mi Calm Calm - N/A   Clear
8:53 PM 81.0 °F 87.9 °F 77.0 °F 88% 30.00 in 10.0 mi Calm Calm - N/A   Clear
9:53 PM 77.0 °F - 77.0 °F 100% 30.01 in 10.0 mi SSE 4.6 mph - N/A   Clear
10:53 PM 78.1 °F - 78.1 °F 100% 30.02 in 9.0 mi South 3.5 mph - N/A   Clear
11:53 PM 77.0 °F - 77.0 °F 100% 30.03 in 8.0 mi SE 3.5 mph - N/A   Clear